Content
SEND FEEDBACK

Daily
Averages
Monthly
Summary
United States of America

LAFAYETTE, VIRGINIA


Home > North America > United States > Virginia
Elevation: 128 feet     Latitude: 37 14N     Longitude: 080 13W

WEATHER
 
SELECT A DAY
Number of Records: 452,000;   Date Range: 1/1/95 - 12/17/14
 
SHARE

PRINT THIS DATA

[ ← Previous Day ]
WEATHER ALMANAC - FEBRUARY 13, 2013
[ Next Day → ]
[ °C ]   °F
Weather ElementAverageHighLow
Temperature40.7 °F44.6 °F (1:57 am)35.6 °F (10:38 pm)
Dewpoint38.1 °F44.6 °F (4:16 pm)30.2 °F (12:56 am)
Humidity90.9 %100 % (7:17 am)61 % (12:56 am)
Barometer29.76 in29.91 in (12:56 am)29.61 in (4:16 pm)
Wind Speed5.4 mph18.4 mph (6:16 pm)
Wind Gust28.8 mph (6:16 pm)
Weather ElementAverage
Visibility8.3 mi
Wind DirectionSSE (148.8 °)

Weather ElementTotal
Precipitation0.23 in
Heating Degree Days24.9 (Base 65)
Averaged from 51 records on February 13, 2013
WEATHER CONDITIONS BREAKOUT
WIND DIRECTION BREAKOUT
WEATHER BY HOUR - FEBRUARY 13, 2013
[ °C ]   °F
Local TimeTemperatureDewpointHumidityBarometerVisibilityWind DirectionWind SpeedGust SpeedPrecipitationEventsConditions
12:56 AM42.8 °F30.2 °F61 %29.91 in10.0 miCalmOvercast
1:18 AM42.8 °F30.2 °F61 %29.90 in10.0 miCalmOvercast
1:57 AM44.6 °F35.6 °F71 %29.89 in10.0 miSouth (180°)3.5 mphOvercast
2:37 AM44.6 °F37.4 °F76 %29.87 in10.0 miSouth (190°)4.6 mphOvercast
2:57 AM42.8 °F37.4 °F81 %29.87 in10.0 miSouth (190°)5.8 mphOvercast
3:17 AM42.8 °F37.4 °F81 %29.86 in10.0 miCalmOvercast
3:37 AM42.8 °F37.4 °F81 %29.84 in10.0 miCalmOvercast
3:56 AM42.8 °F37.4 °F81 %29.83 in10.0 miCalmOvercast
4:36 AM42.8 °F37.4 °F81 %29.81 in10.0 miCalmOvercast
5:16 AM42.8 °F37.4 °F81 %29.79 in10.0 miCalmOvercast
5:36 AM42.8 °F37.4 °F81 %29.80 in10.0 miCalmOvercast
6:16 AM42.8 °F37.4 °F81 %29.79 in10.0 miCalmOvercast
6:58 AM42.8 °F39.2 °F87 %29.78 in10.0 miESE (110°)3.5 mphRainLight Rain
7:17 AM39.2 °F39.2 °F100 %29.78 in10.0 miCalmRainLight Rain
7:38 AM41.0 °F39.2 °F93 %29.78 in10.0 miCalmRainLight Rain
7:55 AM41.0 °F41.0 °F100 %29.78 inESE (120°)4.6 mphRainLight Rain
8:36 AM41.0 °F41.0 °F100 %29.79 in10.0 miSE (140°)3.5 mphOvercast
8:56 AM41.0 °F41.0 °F100 %29.79 in10.0 miESE (120°)3.5 mphRainRain
9:16 AM41.0 °F41.0 °F100 %29.77 in7.0 miESE (120°)6.9 mph0.02 inRainLight Rain
9:36 AM41.0 °F41.0 °F100 %29.76 in2.5 miESE (110°)6.9 mph0.02 inRainRain
9:57 AM41.0 °F41.0 °F100 %29.76 in2.0 miESE (110°)6.9 mphRainLight Rain
10:16 AM41.0 °F41.0 °F100 %29.74 in3.0 miEast (90°)3.5 mph0.06 inRainRain
10:37 AM41.0 °F41.0 °F100 %29.74 in7.0 miEast (90°)3.5 mph0.09 inRainLight Rain
10:57 AM41.0 °F41.0 °F100 %29.74 in2.5 miESE (110°)3.5 mphLight Drizzle
11:36 AM41.0 °F41.0 °F100 %29.72 in2.5 miEast (100°)3.5 mph0.01 inLight Drizzle
11:57 AM41.0 °F41.0 °F100 %29.71 in1.8 miESE (110°)5.8 mphDrizzle
12:17 PM41.0 °F41.0 °F100 %29.70 in1.5 miEast (100°)4.6 mphDrizzle
12:56 PM41.0 °F41.0 °F100 %29.66 in7.0 miESE (110°)3.5 mphOvercast
1:17 PM42.8 °F42.8 °F100 %29.66 in10.0 miCalmOvercast
1:56 PM42.8 °F42.8 °F100 %29.63 in7.0 miESE (110°)4.6 mphOvercast
2:36 PM42.8 °F42.8 °F100 %29.62 in5.0 miCalmLight Drizzle
3:56 PM42.8 °F42.8 °F100 %29.62 in7.0 miSSW (210°)3.5 mphDrizzle
4:16 PM44.6 °F44.6 °F100 %29.61 in7.0 miSouth (190°)3.5 mphRainRain
4:36 PM44.6 °F44.6 °F100 %29.61 in7.0 miCalmRainLight Rain
4:57 PM44.6 °F44.6 °F100 %29.62 in7.0 miWSW (250°)3.5 mphRainLight Rain
5:57 PM41.0 °F39.2 °F93 %29.67 in10.0 miWNW (290°)15.0 mph25.3 mph0.01 inOvercast
6:16 PM39.2 °F37.4 °F93 %29.68 in10.0 miNW (310°)18.4 mph28.8 mph0.01 inMostly Cloudy
6:36 PM37.4 °F35.6 °F93 %29.70 in10.0 miWNW (300°)13.8 mph27.6 mph0.01 inScattered Clouds
6:57 PM37.4 °F35.6 °F93 %29.73 in10.0 miWNW (300°)13.8 mph21.9 mphMostly Cloudy
7:38 PM37.4 °F33.8 °F87 %29.75 in10.0 miWNW (300°)15.0 mph23.0 mphOvercast
7:58 PM37.4 °F33.8 °F87 %29.77 in10.0 miWNW (290°)17.3 mph24.2 mphOvercast
8:17 PM37.4 °F33.8 °F87 %29.78 in10.0 miWest (280°)10.4 mph23.0 mphOvercast
8:36 PM37.4 °F33.8 °F87 %29.78 in10.0 miWNW (290°)6.9 mph18.4 mphOvercast
9:16 PM37.4 °F33.8 °F87 %29.79 in10.0 miWNW (300°)8.1 mph16.1 mphOvercast
9:37 PM37.4 °F33.8 °F87 %29.79 in10.0 miWNW (290°)10.4 mph19.6 mphOvercast
9:58 PM37.4 °F33.8 °F87 %29.80 in10.0 miWNW (300°)8.1 mphOvercast
10:16 PM37.4 °F33.8 °F87 %29.79 in10.0 miWNW (300°)9.2 mph18.4 mphOvercast
10:38 PM35.6 °F33.8 °F93 %29.81 in10.0 miWNW (300°)6.9 mphOvercast
10:56 PM35.6 °F33.8 °F93 %29.82 in10.0 miWNW (300°)6.9 mphOvercast
11:36 PM35.6 °F33.8 °F93 %29.83 in10.0 miWNW (290°)12.7 mph18.4 mphOvercast
11:56 PM35.6 °F33.8 °F93 %29.84 in10.0 miWNW (290°)10.4 mph18.4 mphOvercast
Hourly data recorded from KBCB, located miles away from Lafayette, Virginia







STORIES FROM OUR PARTNERS